User: anonymous   Login
Location: Unspecified
(0.0000°N, 0.0000°E)
Time: 03:36:00
(UTC+00:00)
Language:

Cosmos 1861 - Orbit

View from above orbital plane
View from above orbital plane
View from above satellite
View from above satellite

Ground track
Ground track

The orbit data is extracted from the following two-line orbital elements,

1 18129U 87054A   21342.48727424  .00000053  00000-0  40589-4 0  9993
2 18129  82.9253 105.4258 0010983 219.8972 210.4324 13.73051145726861
Epoch (UTC): 08 December 2021 11:41:40
Eccentricity: 0.0010983
inclination: 82.9253°
perigee height: 980 km
apogee height: 997 km
right ascension of ascending node: 105.4258°
argument of perigee: 219.8972°
revolutions per day: 13.73051145
mean anomaly at epoch: 210.4324°
orbit number at epoch: 72686

The dashed part of the orbit path shows where the satellite is in the earth's shadow,  

DLR